User: anonymous   Login
Location: Bangkok
(13.7500°N, 100.5170°E)
Time: 20:58:57
(UTC+07:00)
Language:

Cosmos 1802 Rocket - Orbit

View from above orbital plane
View from above orbital plane
View from above satellite
View from above satellite

Ground track
Ground track

The orbit data is extracted from the following two-line orbital elements,

1 17160U 86093B   17085.68625828 -.00000020 +00000-0 -36880-4 0  9990
2 17160 082.9256 125.5234 0039392 020.7736 118.4974 13.74594377521262
Epoch (UTC): 26 March 2017 16:28:12
Eccentricity: 0.0039392
inclination: 82.9256°
perigee height: 954 km
apogee height: 1012 km
right ascension of ascending node: 125.5234°
argument of perigee: 20.7736°
revolutions per day: 13.74594377
mean anomaly at epoch: 118.4974°
orbit number at epoch: 52126

The dashed part of the orbit path shows where the satellite is in the earth's shadow,  

DLR